Погода в Усть-Порте

Россия / Красноярский край     69°39′49″N   84°24′31″E
темп.,
°C
ветер,
м/с
пор.,
м/с
влажн.,
%
обл.,
%
осадки,
мм/ч
давл.,
гПа
погр.,
м
22 января, пт
пт2201:00−37св239947 0.0 102919
04:00−38всв339960 0.0 102820
07:00−40всв339943 0.0 102820
10:00−41всв239927 0.0 102818
13:00−42всв229944 0.0 102918
16:00−42св239862 0.0 102918
19:00−42св339750 0.0 102919
22:00−41ссв339666 0.0 102929
23 января, сб
сб2301:00−41ссв349563 0.0 103044
04:00−41ссв349634 0.0 103045
07:00−40ссв349652 0.0 103033
10:00−39ссв349682 0.0 103141
13:00−39ссв339682 0.0 103219
16:00−40св239648 0.0 103218
19:00−40св129729 0.0 103318
22:00−40св119812 0.0 103418
24 января, вс
вс2401:00−41вюв009935 0.0 103418
04:00−41юз009967 0.0 103518
07:00−41ююз119869 0.0 103618
10:00−41юз119864 0.0 103718
13:00−41ююз229543 0.0 103818
16:00−41ююз229514 0.0 104018
19:00−41ююз229510 0.0 104018
22:00−41ююз229611 0.0 104118
25 января, пн
пн2501:00−41ююз229629 0.0 104218
04:00−41ююз229771 0.0 104318
07:00−41ююз229875 0.0 104318
10:00−41ююз229973 0.0 104418
13:00−41ююз229873 0.0 104418
16:00−41юз229885 0.0 104518
19:00−41ююз239881 0.0 104518
22:00−40ююз339782 0.0 104525
26 января, вт
вт2601:00−40ююз339789 0.0 104532
04:00−39ююз3396100 0.0 104565
07:00−38ююз3496100 0.0 104589
10:00−39ююз3496100 0.0 104555
13:00−39ююз3493100 0.0 104473
16:00−40ю4492100 0.0 104470
19:00−41ю479291 0.0 104484
22:00−41ююв599211 0.0 1043133